Charleston, SC

11:39 PM EST on January 23, 2018 (GMT -0500)
Charleston Air Force Base-International

Weather History for KCHS - January, 2013

Change the Weather History Date:

Monday, January 21, 2013

  Actual Average Record
Temperature  
Mean Temperature 52 °F 48 °F  
Max Temperature 67 °F 59 °F 80 °F (1954)
Min Temperature 37 °F 38 °F 6 °F (1985)
Degree Days  
Heating Degree Days 13 17  
Month to date heating degree days 172 357  
Since 1 July heating degree days 870 1095  
Cooling Degree Days 0 0  
Month to date cooling degree days 17 0  
Year to date cooling degree days 17 0  
Growing Degree Days 2 (Base 50)    
Moisture  
Dew Point 33 °F    
Average Humidity 55    
Maximum Humidity 85    
Minimum Humidity 24    
Precipitation  
Precipitation 0.00 in 0.12 in 2.47 in (1983)
Month to date precipitation 0.20 2.51  
Year to date precipitation 0.20 2.51  
Snow  
Snow 0.00 in 0.00 in - ()
Month to date snowfall 0.0  
Since 1 July snowfall 0.0 0.3  
Snow Depth 0.00 in    
Sea Level Pressure  
Sea Level Pressure 30.05 in    
Wind  
Wind Speed 6 mph (West)    
Max Wind Speed 17 mph    
Max Gust Speed 22 mph    
Visibility 10 miles    
Events      
T = Trace of Precipitation, MM = Missing Value Source: NWS Daily Summary

Daily Weather History Graph

Daily Weather History Graph

Search for Another Location

Airport or City:

Trip Planner

Search our weather history database for the weather conditions in past years. The results will help you decide how hot, cold, wet, or windy it might be!

Date:

Astronomy

Jan. 21, 2013 Rise Set
Actual Time 7:21 AM EST 5:42 PM EST
Civil Twilight 6:54 AM EST 6:08 PM EST
Nautical Twilight 6:24 AM EST 6:38 PM EST
Astronomical Twilight 5:55 AM EST 7:08 PM EST
Moon 1:22 PM EST (1/21) 2:47 AM EST (1/21)
Length of Visible Light 11h 14m
Length of Day
10h 21m
Waxing Gibbous, 75% of the Moon is Illuminated
Jan 21
Waxing Gibbous
Jan 26
Full
Feb 3
Last Quarter
Feb 10
New
Feb 17
First Quarter

Hourly Weather History & Observations

Time (EST) Temp. Windchill Dew Point Humidity Pressure Visibility Wind Dir Wind Speed Gust Speed Precip Events Conditions
12:56 AM 44.1 °F - 32.0 °F 63% 30.09 in 10.0 mi Calm Calm - N/A   Clear
1:56 AM 44.1 °F - 32.0 °F 63% 30.09 in 10.0 mi Calm Calm - N/A   Clear
2:56 AM 43.0 °F - 32.0 °F 65% 30.08 in 10.0 mi Calm Calm - N/A   Scattered Clouds
3:56 AM 43.0 °F - 34.0 °F 71% 30.07 in 10.0 mi Calm Calm - N/A   Partly Cloudy
4:56 AM 41.0 °F - 33.1 °F 73% 30.06 in 10.0 mi Calm Calm - N/A   Partly Cloudy
5:56 AM 37.9 °F - 33.1 °F 83% 30.06 in 10.0 mi Calm Calm - N/A   Partly Cloudy
6:56 AM 39.0 °F - 32.0 °F 76% 30.07 in 10.0 mi Calm Calm - N/A   Partly Cloudy
7:56 AM 39.9 °F - 33.1 °F 77% 30.08 in 10.0 mi Calm Calm - N/A   Scattered Clouds
8:56 AM 46.0 °F 44.8 °F 37.0 °F 71% 30.09 in 10.0 mi SW 3.5 mph - N/A   Scattered Clouds
9:56 AM 52.0 °F - 37.9 °F 59% 30.11 in 10.0 mi WSW 4.6 mph - N/A   Scattered Clouds
10:56 AM 59.0 °F - 36.0 °F 42% 30.11 in 10.0 mi West 9.2 mph - N/A   Scattered Clouds
11:56 AM 66.0 °F - 34.0 °F 30% 30.08 in 10.0 mi West 12.7 mph - N/A   Scattered Clouds
12:56 PM 64.9 °F - 28.9 °F 26% 30.03 in 10.0 mi West 11.5 mph - N/A   Mostly Cloudy
1:56 PM 64.9 °F - 28.0 °F 25% 30.01 in 10.0 mi West 11.5 mph - N/A   Mostly Cloudy
2:56 PM 66.9 °F - 28.9 °F 24% 29.99 in 10.0 mi West 11.5 mph - N/A   Mostly Cloudy
3:56 PM 64.9 °F - 28.9 °F 26% 29.98 in 10.0 mi West 12.7 mph 18.4 mph N/A   Mostly Cloudy
4:56 PM 63.0 °F - 32.0 °F 31% 29.99 in 10.0 mi West 8.1 mph - N/A   Mostly Cloudy
5:56 PM 59.0 °F - 34.0 °F 39% 30.00 in 10.0 mi WSW 5.8 mph - N/A   Scattered Clouds
6:56 PM 55.9 °F - 34.0 °F 44% 30.01 in 10.0 mi West 5.8 mph - N/A   Mostly Cloudy
7:56 PM 57.0 °F - 34.0 °F 42% 30.02 in 10.0 mi West 6.9 mph - N/A   Mostly Cloudy
8:56 PM 55.9 °F - 33.1 °F 42% 30.03 in 10.0 mi West 6.9 mph - N/A   Mostly Cloudy
9:56 PM 55.0 °F - 32.0 °F 42% 30.04 in 10.0 mi West 9.2 mph - N/A   Mostly Cloudy
10:56 PM 54.0 °F - 32.0 °F 43% 30.06 in 10.0 mi West 8.1 mph - N/A   Mostly Cloudy
11:56 PM 52.0 °F - 32.0 °F 47% 30.06 in 10.0 mi West 6.9 mph - N/A   Mostly Cloudy